Regional Weather Roundup
Issued by NWS

Home | Current Version | Previous Version | Graphics & Text | Print | Product List | Glossary On
Versions: 1 2 3 4 5 6 7 8 9 10 11 12 13 14 15 16 17 18 19 20 21 22 23 24 25 26 27 28
000
ASUS45 KTFX 200010
RWRMT
MONTANA REGIONAL WEATHER ROUNDUP
NATIONAL WEATHER SERVICE GREAT FALLS MT
600 PM MDT WED JUL 19 2017

NOTE: "FAIR" INDICATES FEW OR NO CLOUDS BELOW 12000 FEET WITH NO
SIGNIFICANT WEATHER AND/OR OBSTRUCTIONS TO VISIBILITY.

MTZ001>007-043-200100-
WEST OF THE DIVIDE

CITY           SKY/WX    TMP DP  RH WIND       PRES   REMARKS
KALISPELL      SUNNY     87  35  15 S5        29.94F
MISSOULA       SUNNY     92  31  11 VRB3      29.93F
BUTTE          SUNNY     86  33  15 MISG      30.07F
MULLAN PASS    SUNNY     75  38  26 VRB7      30.16F
ANACONDA         N/A     84  43  23 N9        30.02F
DEER LODGE       N/A     86  39  19 NW9       30.03F
EUREKA           N/A     90  28  11 MISG      29.92F
HAMILTON         N/A     88  45  22 N7        29.93F
LIBBY            N/A     90  36  14 SW3       29.90F
PLAINS           N/A     93  42  17 W1        29.91F
$$

MTZ008-052>055-200100-
SOUTHWEST MONTANA

CITY           SKY/WX    TMP DP  RH WIND       PRES   REMARKS
BOZEMAN        SUNNY     90  39  16 N8        30.00F
DILLON         SUNNY     90  34  13 CALM      30.00F
W YELLOWSTONE  SUNNY     82  27  13 SW14G21   30.18F
ENNIS          SUNNY     88  30  12 N9        30.08F
THREE FORKS      N/A     91  39  16 NE7       29.97F
TWIN BRIDGES     N/A     91  33  12 CALM      29.99F
$$

MTZ009-010-012-014-046-048-049-054-200100-
EAST SLOPES AND CENTRAL MONTANA

CITY           SKY/WX    TMP DP  RH WIND       PRES   REMARKS
CUT BANK       SUNNY     86  19   8 NW9       29.99F
GREAT FALLS    SUNNY     91  29  11 E7        29.96F
HELENA         SUNNY     91  38  15 NE5       29.96F
CHOTEAU          N/A     90  28  11 NE8       30.00F
CONRAD           N/A     87  41  19 NE10      30.00F
$$

MTZ011-013-016-021-045-047-050-051-200100-
NORTH CENTRAL MONTANA

CITY           SKY/WX    TMP DP  RH WIND       PRES   REMARKS
HAVRE          SUNNY     91  28  10 W10       29.92F
LEWISTOWN      SUNNY     87  33  14 NW8       30.02F
N BAR RANCH      N/A     88  30  12 NW8       30.06F
CHINOOK          N/A     90  37  15 W9        29.92S
$$

MTZ017>020-022>027-061-062-200100-
NORTHEAST MONTANA

CITY           SKY/WX    TMP DP  RH WIND       PRES   REMARKS
GLASGOW        SUNNY     94  40  15 N7        29.86F HX  90
JORDAN           N/A     94  25   8 NW10      29.91F
SIDNEY         SUNNY     88  61  40 S10       29.89F
WOLF POINT     SUNNY     95  40  14 W10G22    29.88F HX  91
MALTA          SUNNY     91  28  10 W8G22     29.88F
PLENTYWOOD       N/A     86  43  22 NE15      29.92S
POPLAR           N/A     91  43  18 SW10      29.88F
SCOBEY           N/A     87  44  22 NE13      29.92F
$$

MTZ028>42-056>058-200100-
SOUTHCENTRAL AND SOUTHEAST MONTANA

CITY           SKY/WX    TMP DP  RH WIND       PRES   REMARKS
BAKER          SUNNY     90  44  20 NW10      30.00F
BILLINGS       SUNNY     92  37  14 E8        29.97F
LIVINGSTON     SUNNY     93  36  13 VRB6      30.00F
MILES CITY     SUNNY     93  41  16 S3        29.92F
BIG TIMBER     SUNNY     90  34  13 S5        30.03F
EKALAKA          N/A     85  47  26 N3        30.01F
FORSYTH          N/A     93  39  15 N5        29.93F
LAUREL           N/A     91  40  16 NE2       29.97F
$$

REGIONAL REPORTS...DAKOTAS

CITY           SKY/WX    TMP DP  RH WIND       PRES   REMARKS
WILLISTON      SUNNY     91  50  24 SW7       29.90S
MINOT          SUNNY     87  56  34 NW12      29.90R
DICKINSON      SUNNY     86  53  32 S8        29.97F
BEACH            N/A     86  48  26 SW6       30.01F
CROSBY           N/A     84  50  30 NE9       29.94S
TIOGA            N/A     86  46  25 N6G13     29.94S
WATFORD CITY   PTSUNNY   86  54  32 S8G16     29.91S
BISMARCK       SUNNY     88  58  36 W7        29.94S
GRAND FORKS    MOSUNNY   84  67  56 SW12      29.84F
FARGO          SUNNY     83  66  56 W8        29.88F
BUFFALO SD       N/A     85  56  37 NE8       29.95F
RAPID CITY     MOSUNNY   88  56  33 NE17G31   29.98F
$$

REGIONAL REPORTS...WYOMING/IDAHO/WASHINGTON

CITY           SKY/WX    TMP DP  RH WIND       PRES   REMARKS
GILLETTE       CLOUDY    88  48  25 NE13G21   30.05F
SHERIDAN       SUNNY     90  47  22 SW8       30.03F
BUFFALO WY     CLOUDY    86  43  22 NW7       30.12F
CODY           SUNNY     81  48  31 NE8       30.08F
YELLOWSTONE LA   N/A     76  25  15 VRB6      30.31F
IDAHO FALLS    SUNNY     92  32  12 SW15      30.04F
BOISE          SUNNY     95  36  12 N8        29.91F HX  90
SPOKANE        MOSUNNY   88  39  17 VRB3      29.94F
$$

REGIONAL REPORTS...ALBERTA

CITY           SKY/WX    TMP DP  RH WIND       PRES   REMARKS
EDMONTON       SUNNY     73  54  49 W6        29.89F
CALGARY        PTSUNNY   79  41  25 SE13      29.95F SMOKE
LETHBRIDGE     MOSUNNY   84  41  21 E13       29.92F
MEDICINE HAT   MOSUNNY   84  45  24 SW8       29.91F
WATERTON GATE    N/A     81  32  17 SW9G17      N/A
ONEFOUR          N/A     86  30  13 W13G21      N/A
$$

REGIONAL REPORTS...SASKATCHEWAN

CITY           SKY/WX    TMP DP  RH WIND       PRES   REMARKS
SWIFT CURRENT  SUNNY     81  45  28 E7        29.95F
REGINA         CLOUDY    77  46  33 N3        29.96S
SASKATOON      PTSUNNY   75  54  46 SW10      29.94F
CYPRESS HILLS    N/A     77  37  24 NW5         N/A
VAL MARIE        N/A     86  39  19 NE16        N/A
ROCKGLEN         N/A     82  41  23 NE7         N/A
ASSINIBOIA       N/A     73  54  49 SW6         N/A
$$




USA.gov is the U.S. government's official web portal to all federal, state and local government web resources and services.